Overview Statistics Trail Chart Weather Telemetry Raw packets
 

This is the latest recevied weather packets stored in our database for station/object K6CEG. If no packets are shown the sender has not sent any weather packets the latest 10 day(s).

<< 85 86 87 88 89 90 91 >>
Time Temp. Humidity Pressure Rain* Wind** Luminosity Snow
1788051535 33.33° C 33% 1011.7 hPa 0 mm - 71 W/m² -
1788051234 33.33° C 35% 1011.7 hPa 0 mm - 78 W/m² -
1788050933 32.78° C 34% 1011.7 hPa 0 mm - 41 W/m² -
1788050629 33.33° C 35% 1011.9 hPa 0 mm - 35 W/m² -
1788050328 33.33° C 34% 1011.7 hPa 0 mm - 39 W/m² -
1788050028 33.33° C 32% 1011.6 hPa 0 mm - 36 W/m² -
1788049725 33.89° C 32% 1011.7 hPa 0 mm - 39 W/m² -
1788049421 33.89° C 32% 1011.7 hPa 0 mm - 64 W/m² -
1788049116 33.89° C 33% 1011.6 hPa 0 mm - 175 W/m² -
1788048812 34.44° C 33% 1011.6 hPa 0 mm - 256 W/m² -
1788048511 35° C 32% 1011.7 hPa 0 mm - 216 W/m² -
1788048209 35° C 32% 1011.8 hPa 0 mm - 279 W/m² -
1788047907 35.56° C 31% 1011.9 hPa 0 mm - 230 W/m² -
1788047602 35.56° C 32% 1011.5 hPa 0 mm - 45 W/m² -
1788047301 35.56° C 32% 1011.8 hPa 0 mm - 77 W/m² -
1788046996 36.11° C 31% 1012 hPa 0 mm - 46 W/m² -
1788046695 36.11° C 31% 1011.8 hPa 0 mm - 47 W/m² -
1788046390 36.11° C 29% 1011.6 hPa 0 mm - 54 W/m² -
1788046098 36.11° C 30% 1011.8 hPa 0 mm - 104 W/m² -
1788045784 36.67° C 30% 1011.8 hPa 0 mm - 241 W/m² -
1788045479 36.11° C 30% 1011.7 hPa 0 mm - 76 W/m² -
1788045175 36.11° C 30% 1011.8 hPa 0 mm - 50 W/m² -
1788044874 36.11° C 30% 1011.8 hPa 0 mm - 52 W/m² -
1788044569 36.11° C 29% 1012 hPa 0 mm - 50 W/m² -
1788044268 36.11° C 29% 1011.9 hPa 0 mm - 53 W/m² -

* Rain latest hour (hover to see other rain measurements)
** Current wind speed in m/s (hover to see current wind gust speed)